DW1814 Weather Reports


Display with metric or nautical units.
time (UTC)temp
F
wind
direction
speed
MPH
gust
MPH
rain 1hr
in
rain 24hr
in
rain mn
in
humidity
%
barometer
mb
20260902164639 91 205 0.0 2.0 0.00 0.00 0.00 60 1013.4
20260902164138 90 224 0.0 1.0 0.00 0.00 0.00 60 1013.4
20260902163633 90 207 1.0 2.0 0.00 0.00 0.00 62 1013.4
20260902163133 90 19 0.0 2.0 0.00 0.00 0.00 61 1013.3
20260902162631 90 242 0.0 0.0 0.00 0.00 0.00 61 1013.2
20260902162126 90 193 0.0 1.0 0.00 0.00 0.00 62 1013.3
20260902161622 89 212 0.0 0.0 0.00 0.00 0.00 64 1013.5
20260902161118 89 315 0.0 2.0 0.00 0.00 0.00 63 1013.5
20260902160614 89 333 0.0 0.0 0.00 0.00 0.00 64 1013.4
20260902160109 88 207 1.0 1.0 0.00 0.00 0.00 64 1013.5
20260902155607 88 284 0.0 1.0 0.00 0.00 0.00 66 1013.6
20260902155106 87 23 0.0 2.0 0.00 0.00 0.00 67 1013.5
20260902154602 86 147 0.0 3.0 0.00 0.00 0.00 68 1013.8
20260902154101 86 290 3.0 3.0 0.00 0.00 0.00 67 1013.6
20260902153600 86 356 0.0 2.0 0.00 0.00 0.00 69 1013.4
20260902153056 85 19 0.0 0.0 0.00 0.00 0.00 69 1013.5
20260902152553 85 265 0.0 4.0 0.00 0.00 0.00 67 1013.3
20260902152047 85 150 0.0 0.0 0.00 0.00 0.00 70 1013.5
20260902151543 84 117 0.0 1.0 0.00 0.00 0.00 72 1013.5
20260902151042 84 301 4.0 5.0 0.00 0.00 0.00 68 1013.7
20260902150538 83 329 0.0 3.0 0.00 0.00 0.00 71 1014.0
20260902150034 83 124 0.0 2.0 0.00 0.00 0.00 73 1013.9
20260902145528 83 338 2.0 2.0 0.00 0.00 0.00 73 1014.1
20260902145028 83 124 0.0 0.0 0.00 0.00 0.00 72 1013.9
20260902144525 82 315 2.0 3.0 0.00 0.00 0.00 73 1013.9
20260902144025 82 13 0.0 2.0 0.00 0.00 0.00 73 1014.1
20260902143520 82 319 0.0 2.0 0.00 0.00 0.00 74 1014.1
20260902143016 82 275 0.0 2.0 0.00 0.00 0.00 72 1014.1
20260902142511 82 255 0.0 0.0 0.00 0.00 0.00 74 1013.9
20260902142007 81 89 0.0 1.0 0.00 0.00 0.00 75 1013.8
20260902141501 81 58 2.0 3.0 0.00 0.00 0.00 79 1014.0
20260902141001 80 89 0.0 1.0 0.00 0.00 0.00 76 1013.8
20260902140457 80 339 2.0 2.0 0.00 0.00 0.00 77 1014.1
20260902135956 80 6 1.0 2.0 0.00 0.00 0.00 75 1014.3
20260902135452 81 276 1.0 1.0 0.00 0.00 0.00 75 1014.3
20260902134951 81 24 2.0 2.0 0.00 0.00 0.00 75 1014.3
20260902134448 82 345 2.0 4.0 0.00 0.00 0.00 74 1014.3
20260902133947 81 330 2.0 3.0 0.00 0.00 0.00 77 1014.3
20260902133442 81 14 4.0 5.0 0.00 0.00 0.00 76 1014.3
20260902132937 80 148 1.0 1.0 0.00 0.00 0.00 78 1014.3
20260902132433 80 352 1.0 3.0 0.00 0.00 0.00 78 1014.1
20260902131927 80 124 2.0 2.0 0.00 0.00 0.00 79 1014.0
20260902131424 78 341 3.0 3.0 0.00 0.00 0.00 80 1014.4
20260902130923 78 108 1.0 4.0 0.00 0.00 0.00 80 1014.4
20260902130420 78 354 3.0 6.0 0.00 0.00 0.00 81 1014.6
20260902125920 79 359 1.0 2.0 0.00 0.00 0.00 80 1014.2
20260902125416 78 77 1.0 2.0 0.00 0.00 0.00 83 1013.8
20260902124912 77 104 0.0 0.0 0.00 0.00 0.00 84 1013.9
20260902124408 76 42 0.0 1.0 0.00 0.00 0.00 86 1013.6
20260902123902 76 119 0.0 2.0 0.00 0.00 0.00 86 1013.9
20260902123359 75 61 0.0 1.0 0.00 0.00 0.00 87 1013.8
20260902122857 75 88 0.0 1.0 0.00 0.00 0.00 87 1013.9
20260902122353 75 74 0.0 1.0 0.00 0.00 0.00 87 1013.9
20260902121854 75 76 1.0 1.0 0.00 0.00 0.00 88 1013.8
20260902121349 75 72 0.0 1.0 0.00 0.00 0.00 89 1013.8
20260902120844 74 66 0.0 2.0 0.00 0.00 0.00 89 1013.9
20260902120341 74 57 0.0 1.0 0.00 0.00 0.00 89 1013.7
20260902115840 74 139 1.0 1.0 0.00 0.00 0.00 90 1013.6
20260902115336 74 89 1.0 2.0 0.00 0.00 0.00 90 1013.4
20260902114833 74 337 1.0 2.0 0.00 0.00 0.00 90 1013.6
20260902114328 74 25 0.0 2.0 0.00 0.00 0.00 90 1013.6
20260902113828 74 343 1.0 2.0 0.00 0.00 0.00 89 1013.3
20260902113324 74 111 1.0 3.0 0.00 0.00 0.00 90 1013.4
20260902112823 74 76 1.0 2.0 0.00 0.00 0.00 90 1013.6
20260902112320 74 99 0.0 1.0 0.00 0.00 0.00 90 1013.3
20260902111814 74 89 0.0 1.0 0.00 0.00 0.00 90 1013.6
20260902111311 74 89 1.0 2.0 0.00 0.00 0.00 89 1013.5
20260902110807 74 80 1.0 1.0 0.00 0.00 0.00 89 1013.7
20260902110302 74 85 0.0 1.0 0.00 0.00 0.00 89 1013.4
20260902105802 74 89 0.0 1.0 0.00 0.00 0.00 89 1013.6
20260902105257 74 89 0.0 1.0 0.00 0.00 0.00 89 1013.7
20260902104753 74 93 1.0 1.0 0.00 0.00 0.00 90 1013.7
20260902104249 74 101 0.0 1.0 0.00 0.00 0.00 90 1013.7
20260902103748 74 97 0.0 1.0 0.00 0.00 0.00 90 1013.6
20260902103248 74 76 0.0 1.0 0.00 0.00 0.00 90 1013.8
20260902102744 74 123 0.0 1.0 0.00 0.00 0.00 90 1013.9
20260902102241 74 89 0.0 1.0 0.00 0.00 0.00 90 1013.5
20260902101736 74 99 0.0 1.0 0.00 0.00 0.00 90 1013.8
20260902101231 74 89 0.0 1.0 0.00 0.00 0.00 90 1013.7
20260902100730 74 89 0.0 1.0 0.00 0.00 0.00 90 1013.5
20260902100226 74 91 1.0 1.0 0.00 0.00 0.00 90 1013.7
20260902095725 74 93 0.0 1.0 0.00 0.00 0.00 90 1013.8
20260902095220 74 103 1.0 1.0 0.00 0.00 0.00 90 1013.8
20260902094714 74 113 1.0 1.0 0.00 0.00 0.00 91 1013.7
20260902094211 74 82 0.0 1.0 0.00 0.00 0.00 91 1013.7
20260902093710 74 62 0.0 1.0 0.00 0.00 0.00 90 1013.8
20260902093205 74 72 0.0 1.0 0.00 0.00 0.00 90 1013.8
20260902092700 74 68 0.0 1.0 0.00 0.00 0.00 89 1014.0
20260902092155 75 53 0.0 1.0 0.00 0.00 0.00 89 1013.8
20260902091654 75 79 1.0 1.0 0.00 0.00 0.00 89 1013.8
20260902091152 75 83 0.0 1.0 0.00 0.00 0.00 89 1013.7
20260902090647 75 79 1.0 2.0 0.00 0.00 0.00 89 1013.5
20260902090146 75 96 1.0 2.0 0.00 0.00 0.00 89 1013.5
20260902085641 75 101 1.0 1.0 0.00 0.00 0.00 89 1013.7
20260902085136 75 66 1.0 1.0 0.00 0.00 0.00 89 1013.6
20260902084632 75 84 0.0 1.0 0.00 0.00 0.00 89 1013.5
20260902084127 75 71 1.0 1.0 0.00 0.00 0.00 89 1013.5
20260902083622 75 91 1.0 1.0 0.00 0.00 0.00 89 1013.6
20260902083122 75 101 0.0 2.0 0.00 0.00 0.00 89 1013.2
20260902082618 75 98 1.0 1.0 0.00 0.00 0.00 89 1013.3
20260902082114 75 107 1.0 2.0 0.00 0.00 0.00 89 1013.1
20260902081611 75 62 0.0 1.0 0.00 0.00 0.00 89 1013.1
20260902081110 75 94 1.0 1.0 0.00 0.00 0.00 89 1013.3
20260902080606 75 87 1.0 1.0 0.00 0.00 0.00 89 1013.6
20260902075601 75 101 0.0 1.0 0.00 0.00 0.00 88 1013.3
20260902075058 76 112 0.0 2.0 0.00 0.00 0.00 88 1013.4
20260902074553 76 65 0.0 1.0 0.00 0.00 0.00 88 1013.3
20260902074048 76 87 0.0 2.0 0.00 0.00 0.00 88 1013.3
20260902073543 76 61 1.0 1.0 0.00 0.00 0.00 88 1013.5
20260902073040 76 45 0.0 1.0 0.00 0.00 0.00 88 1013.3
20260902072535 76 60 0.0 1.0 0.00 0.00 0.00 88 1013.5
20260902072032 76 75 0.0 1.0 0.00 0.00 0.00 88 1013.2
20260902071531 76 86 0.0 1.0 0.00 0.00 0.00 88 1013.2
20260902071028 76 89 0.0 2.0 0.00 0.00 0.00 87 1013.4
20260902070523 77 135 0.0 1.0 0.00 0.00 0.00 87 1013.4
20260902070018 77 130 0.0 2.0 0.00 0.00 0.00 87 1013.4
20260902065517 77 139 1.0 2.0 0.00 0.00 0.00 88 1013.3
20260902065012 77 119 1.0 2.0 0.00 0.00 0.00 88 1013.1
20260902064508 77 130 0.0 2.0 0.00 0.00 0.00 88 1013.3
20260902064004 77 108 0.0 1.0 0.00 0.00 0.00 87 1013.3
20260902063503 77 147 0.0 1.0 0.00 0.00 0.00 87 1013.5
20260902062959 77 102 1.0 1.0 0.00 0.00 0.00 87 1013.4
20260902062457 77 139 0.0 1.0 0.00 0.00 0.00 87 1013.4
20260902061953 77 108 0.0 1.0 0.00 0.00 0.00 87 1013.6
20260902061447 77 107 1.0 1.0 0.00 0.00 0.00 86 1013.5
20260902060944 78 92 1.0 1.0 0.00 0.00 0.00 86 1013.5
20260902060439 78 135 1.0 1.0 0.00 0.00 0.00 86 1013.5
20260902055935 78 77 0.0 1.0 0.00 0.00 0.00 86 1013.3
20260902055431 78 124 0.0 1.0 0.00 0.00 0.00 86 1013.3
20260902054926 78 152 1.0 1.0 0.00 0.00 0.00 86 1013.2
20260902054421 78 135 0.0 1.0 0.00 0.00 0.00 85 1013.2
20260902053916 78 135 0.0 1.0 0.00 0.00 0.00 85 1013.2
20260902053412 78 132 0.0 1.0 0.00 0.00 0.00 85 1013.2
20260902052911 78 141 0.0 1.0 0.00 0.00 0.00 85 1013.2
20260902052406 78 135 0.0 2.0 0.00 0.00 0.00 86 1013.3
20260902051901 78 148 0.0 1.0 0.00 0.00 0.00 86 1013.3
20260902051356 78 113 0.0 1.0 0.00 0.00 0.00 86 1013.4
20260902050855 78 120 0.0 1.0 0.00 0.00 0.00 86 1013.2
20260902050355 78 164 0.0 1.0 0.00 0.00 0.00 86 1013.1
20260902045850 79 160 0.0 1.0 0.00 0.00 0.00 86 1013.1
20260902045345 79 122 0.0 1.0 0.00 0.00 0.00 86 1013.4
20260902044842 79 102 0.0 0.0 0.00 0.00 0.00 86 1013.3
20260902044337 79 142 0.0 0.0 0.00 0.00 0.00 85 1013.2
20260902043837 79 154 0.0 1.0 0.00 0.00 0.00 85 1013.2
20260902043333 79 142 0.0 1.0 0.00 0.00 0.00 85 1013.2
20260902042833 79 142 0.0 1.0 0.00 0.00 0.00 85 1013.3
20260902042332 79 145 0.0 1.0 0.00 0.00 0.00 85 1013.1
20260902041827 79 117 0.0 1.0 0.00 0.00 0.00 84 1013.3
20260902041327 79 142 0.0 1.0 0.00 0.00 0.00 84 1013.3
20260902040826 79 147 0.0 1.0 0.00 0.00 0.00 84 1013.3
20260902040322 80 147 0.0 1.0 0.00 0.00 0.00 84 1013.5
20260902035820 80 142 0.0 1.0 0.00 0.00 0.00 83 1013.2
20260902035317 80 50 0.0 1.0 0.00 0.00 0.00 84 1013.3
20260902034815 80 133 0.0 1.0 0.00 0.00 0.00 84 1013.3
20260902034310 80 129 0.0 1.0 0.00 0.00 0.00 84 1013.4
20260902033808 80 147 0.0 1.0 0.00 0.00 0.00 84 1013.7
20260902033304 80 139 0.0 0.0 0.00 0.00 0.00 84 1013.5
20260902032802 80 154 0.0 1.0 0.00 0.00 0.00 84 1013.4
20260902032257 80 195 0.0 1.0 0.00 0.00 0.00 85 1013.6
20260902031757 80 113 0.0 1.0 0.00 0.00 0.00 86 1013.6
20260902031253 79 135 0.0 1.0 0.00 0.00 0.00 87 1013.7
20260902030748 79 104 0.0 1.0 0.00 0.00 0.00 88 1013.6
20260902030243 79 95 0.0 0.0 0.00 0.00 0.00 88 1013.8
20260902025742 78 62 0.0 1.0 0.00 0.00 0.00 89 1013.8
20260902025238 78 52 0.0 1.0 0.00 0.00 0.00 89 1013.8
20260902024732 78 58 0.0 1.0 0.00 0.00 0.00 89 1013.7
20260902024228 78 61 0.0 1.0 0.00 0.00 0.00 90 1013.6
20260902023724 79 74 1.0 1.0 0.00 0.00 0.00 89 1013.6
20260902023219 79 57 0.0 1.0 0.00 0.00 0.00 88 1013.7
20260902022718 79 54 0.0 1.0 0.00 0.00 0.00 88 1013.5
20260902022214 79 75 0.0 1.0 0.00 0.00 0.00 87 1013.7
20260902021710 80 44 0.0 1.0 0.00 0.00 0.00 87 1013.7
20260902021209 80 89 0.0 1.0 0.00 0.00 0.00 87 1013.4
20260902020706 80 37 0.0 0.0 0.00 0.00 0.00 86 1013.5
20260902020201 80 52 0.0 1.0 0.00 0.00 0.00 85 1013.4
20260902015656 81 43 0.0 1.0 0.00 0.00 0.00 84 1013.5
20260902015153 81 50 0.0 0.0 0.00 0.00 0.00 84 1013.3
20260902014648 81 62 0.0 0.0 0.00 0.00 0.00 83 1013.4
20260902014144 82 62 0.0 0.0 0.00 0.00 0.00 83 1013.3
20260902013643 82 62 0.0 0.0 0.00 0.00 0.00 83 1013.2
20260902013139 82 62 0.0 0.0 0.00 0.00 0.00 82 1013.2
20260902012634 82 62 0.0 0.0 0.00 0.00 0.00 82 1013.2
20260902012130 83 44 0.0 0.0 0.00 0.00 0.00 81 1013.0
20260902011625 83 44 0.0 0.0 0.00 0.00 0.00 81 1012.8
20260902011126 83 50 0.0 0.0 0.00 0.00 0.00 80 1013.0
20260902010624 83 142 0.0 0.0 0.00 0.00 0.00 80 1012.8
20260902010120 84 157 0.0 0.0 0.00 0.00 0.00 80 1012.8
20260902005618 84 129 0.0 0.0 0.00 0.00 0.00 80 1012.5
20260902005114 84 150 0.0 0.0 0.00 0.00 0.00 80 1012.5
20260902004613 84 142 0.0 0.0 0.00 0.00 0.00 80 1012.6
20260902004109 84 142 0.0 0.0 0.00 0.00 0.00 79 1012.6
20260902003604 85 129 0.0 0.0 0.00 0.00 0.00 79 1012.4
20260902003100 85 157 0.0 0.0 0.00 0.00 0.00 78 1012.3
20260902002555 85 127 0.0 0.0 0.00 0.00 0.00 78 1012.3
20260902002049 85 154 0.0 0.0 0.00 0.00 0.00 77 1012.5
20260902001544 85 199 0.0 0.0 0.00 0.00 0.00 78 1012.5
20260902001039 86 154 0.0 1.0 0.00 0.00 0.00 77 1012.6
20260902000534 86 142 0.0 0.0 0.00 0.00 0.00 78 1012.3
20260902000030 86 150 0.0 0.0 0.00 0.00 0.00 77 1012.3
20260901235529 86 162 0.0 0.0 0.00 0.00 0.00 77 1012.3
20260901235025 87 162 0.0 0.0 0.00 0.00 0.00 76 1012.4
20260901234524 87 164 0.0 0.0 0.00 0.00 0.00 76 1012.6
20260901234019 87 195 0.0 0.0 0.00 0.00 0.00 76 1012.4
20260901233514 87 22 0.0 0.0 0.00 0.00 0.00 76 1012.6
20260901233010 88 230 0.0 0.0 0.00 0.00 0.00 76 1012.5
20260901232505 88 304 0.0 1.0 0.00 0.00 0.00 75 1012.7
20260901232000 88 141 0.0 0.0 0.00 0.00 0.00 74 1012.7
20260901231457 88 50 0.0 0.0 0.00 0.00 0.00 74 1012.9
20260901230953 89 75 0.0 0.0 0.00 0.00 0.00 73 1012.7
20260901230453 89 195 0.0 0.0 0.00 0.00 0.00 74 1012.7
20260901225948 89 205 0.0 1.0 0.00 0.00 0.00 72 1012.8
20260901225447 89 148 0.0 0.0 0.00 0.00 0.00 73 1012.8
20260901224942 89 297 0.0 0.0 0.00 0.00 0.00 73 1012.7
20260901224438 90 297 0.0 0.0 0.00 0.00 0.00 72 1012.9
20260901223934 90 291 0.0 0.0 0.00 0.00 0.00 71 1012.7
20260901223430 90 66 0.0 0.0 0.00 0.00 0.00 70 1013.1
20260901222925 90 218 0.0 0.0 0.00 0.00 0.00 72 1013.0
20260901222422 91 283 0.0 0.0 0.00 0.00 0.00 69 1013.0
20260901221917 91 224 0.0 0.0 0.00 0.00 0.00 69 1013.0
20260901221413 91 326 0.0 1.0 0.00 0.00 0.00 67 1013.2
20260901220908 91 195 0.0 2.0 0.00 0.00 0.00 69 1012.8
20260901220406 91 269 0.0 2.0 0.00 0.00 0.00 67 1012.9
20260901215905 91 174 0.0 1.0 0.00 0.00 0.00 70 1012.9
20260901215404 91 188 0.0 2.0 0.00 0.00 0.00 67 1012.9
20260901214903 91 242 0.0 1.0 0.00 0.00 0.00 66 1012.6
20260901214403 92 326 0.0 2.0 0.00 0.00 0.00 68 1012.7
20260901213902 93 232 0.0 1.0 0.00 0.00 0.00 70 1012.4
20260901213357 92 242 0.0 1.0 0.00 0.00 0.00 66 1012.8
20260901212856 92 336 0.0 1.0 0.00 0.00 0.00 67 1012.7
20260901212352 92 269 0.0 2.0 0.00 0.00 0.00 66 1012.6
20260901211848 91 211 0.0 1.0 0.00 0.00 0.00 68 1012.8
20260901211344 92 237 0.0 2.0 0.00 0.00 0.00 68 1012.8
20260901210839 92 218 0.0 2.0 0.00 0.00 0.00 69 1012.9
20260901210335 92 297 0.0 1.0 0.00 0.00 0.00 67 1012.9
20260901205831 92 295 2.0 4.0 0.00 0.00 0.00 67 1012.9
20260901205331 92 230 0.0 2.0 0.00 0.00 0.00 65 1013.0
20260901204826 92 314 2.0 5.0 0.00 0.00 0.00 63 1013.0
20260901204323 92 15 0.0 1.0 0.00 0.00 0.00 66 1013.2
20260901203822 92 336 0.0 4.0 0.00 0.00 0.00 64 1013.0
20260901203317 92 296 0.0 2.0 0.00 0.00 0.00 63 1013.0
20260901202812 93 294 0.0 2.0 0.00 0.00 0.00 63 1012.9
20260901202307 93 280 0.0 0.0 0.00 0.00 0.00 68 1013.0
20260901201803 92 235 0.0 2.0 0.00 0.00 0.00 64 1013.2
20260901201303 92 303 1.0 2.0 0.00 0.00 0.00 67 1013.0
20260901200801 92 211 1.0 2.0 0.00 0.00 0.00 66 1013.1
20260901200257 92 300 2.0 4.0 0.00 0.00 0.00 64 1013.1
20260901195755 92 312 2.0 2.0 0.00 0.00 0.00 64 1013.0
20260901195255 92 293 0.0 3.0 0.00 0.00 0.00 62 1013.2
20260901194750 92 284 2.0 4.0 0.00 0.00 0.00 61 1013.0
20260901194246 92 29 0.0 4.0 0.00 0.00 0.00 63 1013.4
20260901193742 92 291 0.0 2.0 0.00 0.00 0.00 62 1013.2
20260901193240 92 249 1.0 2.0 0.00 0.00 0.00 62 1013.4
20260901192735 92 293 1.0 4.0 0.00 0.00 0.00 59 1013.6
20260901192231 92 180 0.0 5.0 0.00 0.00 0.00 59 1013.5
20260901191726 92 258 0.0 2.0 0.00 0.00 0.00 61 1013.6
20260901191223 92 226 1.0 4.0 0.00 0.00 0.00 66 1013.3
20260901190718 91 338 1.0 2.0 0.00 0.00 0.00 65 1013.3
20260901190217 91 269 0.0 0.0 0.00 0.00 0.00 66 1013.5
20260901185716 91 196 0.0 2.0 0.00 0.00 0.00 64 1013.3
20260901185215 91 249 0.0 2.0 0.00 0.00 0.00 66 1013.5
20260901184711 91 205 0.0 1.0 0.00 0.00 0.00 67 1013.5
20260901184206 91 316 0.0 3.0 0.00 0.00 0.00 69 1013.4
20260901183701 91 217 0.0 2.0 0.00 0.00 0.00 67 1013.5
20260901183200 91 315 0.0 3.0 0.00 0.00 0.00 69 1013.6
20260901182657 90 315 0.0 1.0 0.00 0.00 0.00 67 1013.7
20260901182157 90 269 0.0 2.0 0.00 0.00 0.00 66 1013.5
20260901181652 90 333 0.0 2.0 0.00 0.00 0.00 70 1013.5
20260901181152 90 242 0.0 2.0 0.00 0.00 0.00 68 1013.7
20260901180652 90 297 0.0 0.0 0.00 0.00 0.00 72 1013.6
20260901180145 90 207 2.0 2.0 0.00 0.00 0.00 67 1013.7
20260901175644 90 205 0.0 2.0 0.00 0.00 0.00 73 1013.8
20260901175144 89 13 0.0 0.0 0.00 0.00 0.00 72 1014.1
20260901174640 89 322 2.0 2.0 0.00 0.00 0.00 72 1014.0
20260901174136 89 224 0.0 1.0 0.00 0.00 0.00 72 1013.9
20260901173631 89 269 0.0 2.0 0.00 0.00 0.00 74 1013.9
20260901173126 90 269 0.0 1.0 0.00 0.00 0.00 73 1013.9
20260901172622 89 202 0.0 0.0 0.00 0.00 0.00 74 1014.0
20260901172120 89 293 0.0 1.0 0.00 0.00 0.00 76 1014.1
20260901171619 89 262 0.0 2.0 0.00 0.00 0.00 77 1014.1
20260901171114 88 309 0.0 1.0 0.00 0.00 0.00 77 1014.0
20260901170613 87 224 0.0 1.0 0.00 0.00 0.00 77 1014.0
20260901170108 88 311 2.0 2.0 0.00 0.00 0.00 77 1014.3
20260901165607 88 94 2.0 3.0 0.00 0.00 0.00 75 1014.2
20260901165102 88 245 0.0 2.0 0.00 0.00 0.00 77 1014.4